#timestamp,LO_Frequency,Hit,StdDev 
1458554415.2,286047016.1,N
1458554435.9,286047014.5,N
1458554455.7,286047016.7,N
1458554475.6,286047013.0,N
1458554495.4,286047015.3,N
1458554515.2,286047015.4,N
1458554535.0,286047011.2,N
1458554536.0,286047011.2,N
1458554555.8,286047012.8,N
1458554575.6,286047015.5,N
1458554595.4,286047014.8,N
1458554615.3,286047012.7,N
1458554635.1,286047012.8,N
1458554655.8,286047010.4,N
1458554675.7,286047010.1,N
1458554695.5,286047008.2,N
1458554715.3,286047006.1,N
1458554735.2,286047006.7,N
1458554755.9,286047009.1,N
1458554775.7,286047008.8,N
1458554795.6,286047008.1,N
1458554815.4,286047008.0,N
1458554835.2,286047007.8,N
1458554855.1,286047009.9,N
1458554856.0,286047009.9,Y
1458554875.8,286046995.4,P
1458554895.6,286046997.6,N
1458554915.5,286046998.9,N
1458554935.3,286047000.9,N
1458554955.1,286047002.7,N
1458554975.8,286046998.5,N
1458554995.7,286046998.1,N
1458555015.5,286046997.5,N
1458555035.3,286046993.5,N
1458555055.2,286046993.6,N
1458555075.9,286046995.5,N
1458555095.7,286046998.9,N
1458555115.6,286046997.0,N
1458555135.4,286046995.0,N
1458555155.2,286046997.8,N
1458555175.1,286046994.6,N
1458555176.0,286046994.6,N
1458555195.8,286046995.7,N
1458555215.6,286046994.2,N
1458555235.5,286046995.9,N
1458555255.3,286046994.8,N
1458555275.1,286046992.4,N
1458555295.8,286046994.0,N
1458555315.7,286046990.8,N
1458555335.5,286046989.1,N
1458555355.3,286046994.4,N
1458555375.2,286046996.2,N
1458555395.9,286046996.8,N
1458555415.7,286046994.9,N
1458555435.6,286046996.1,N
1458555455.4,286046993.6,N
1458555475.2,286046991.9,N
1458555495.1,286046993.2,N
1458555496.0,286046993.2,N
1458555515.8,286046990.9,Y
1458555535.6,286046996.8,P
1458555555.5,286046994.5,P
1458555575.3,286046990.6,P
1458555595.1,286046993.1,Y
1458555615.9,286047000.7,P
1458555635.7,286047003.8,N
1458555655.5,286047000.3,N
1458555675.4,286046998.5,N
1458555695.2,286047003.6,N
1458555715.0,286047003.1,N
1458555715.9,286047003.1,N
1458555735.8,286047004.1,N
1458555755.6,286047002.2,N
1458555775.4,286047003.7,N
1458555795.2,286047001.1,N
1458555815.1,286046998.0,N
1458555816.0,286046998.0,N
1458555835.8,286046994.1,N
1458555855.6,286046991.7,N
1458555875.5,286046991.7,N
1458555895.3,286046990.2,N
1458555915.1,286046989.0,N
1458555935.9,286046990.5,N
1458555955.7,286046992.5,N
1458555975.5,286046991.5,N
1458555995.4,286046990.6,N
1458556015.2,286046990.9,N
1458556035.0,286046991.4,N
1458556035.9,286046991.4,N
1458556055.8,286046995.7,N
1458556075.6,286046992.2,N
1458556095.4,286046989.2,N
1458556115.2,286046985.4,N
1458556135.1,286046985.5,N
1458556136.0,286046985.5,N
1458556155.8,286046986.3,N
1458556175.6,286046982.6,N
1458556195.5,286046979.7,Y
1458556215.3,286046984.2,P
1458556235.2,286046986.6,N
1458556255.9,286046983.9,P
1458556275.7,286046985.8,Y
1458556295.6,286046999.7,P
1458556315.4,286047000.4,N
1458556335.2,286047002.2,N
1458556355.0,286047001.8,N
1458556355.9,286047001.8,N
1458556375.8,286047000.9,N
1458556395.6,286047002.6,N
1458556415.4,286047003.0,N
1458556435.3,286047006.5,N
1458556455.1,286047008.4,N
1458556456.0,286047008.4,N
1458556475.8,286047009.6,N
1458556495.7,286047008.5,N
1458556515.5,286047008.8,N
1458556535.3,286047008.0,N
1458556555.2,286047008.3,N
1458556575.9,286047010.6,N
1458556595.7,286047008.8,N
1458556615.6,286047005.5,N
1458556635.4,286047007.4,N
1458556655.2,286047012.8,N
1458556675.0,286047015.2,N
1458556675.9,286047015.2,N
1458556695.8,286047016.1,N
1458556715.6,286047014.4,N
1458556735.4,286047017.8,N
1458556755.3,286047015.9,N
1458556775.1,286047017.6,N
1458556795.8,286047019.6,N
1458556815.7,286047019.8,N
1458556835.5,286047017.3,N
1458556855.3,286047020.5,Y
1458556875.2,286047013.6,P
1458556895.9,286047009.6,P
1458556915.7,286047010.2,P
1458556935.6,286047011.9,Y
1458556955.4,286047000.2,P
1458556975.2,286046995.0,N
1458556995.1,286046995.2,N
1458556996.0,286046995.2,N
1458557015.8,286046996.6,N
1458557035.6,286046999.4,N
1458557055.5,286046999.0,N
1458557075.3,286047001.1,N
1458557095.1,286047001.7,N
1458557115.8,286047000.7,N
1458557135.7,286047000.8,N
1458557155.5,286046999.9,N
1458557175.3,286047001.2,N
1458557195.2,286046997.8,N
1458557215.9,286047004.4,N
1458557235.7,286047001.9,N
1458557255.6,286047002.5,N
1458557275.4,286047001.5,N
1458557295.2,286046999.1,N
1458557315.1,286046998.9,N
1458557316.0,286046998.9,N
1458557335.8,286046999.1,N
1458557355.6,286047002.7,N
1458557375.5,286047002.1,N
1458557395.3,286047002.9,N
1458557415.1,286047003.3,N
1458557435.8,286047001.5,N
1458557455.7,286047003.1,N
1458557475.5,286047005.9,N
1458557495.3,286047008.0,N
1458557515.2,286047008.3,N
1458557535.9,286047005.5,N
1458557555.7,286047004.9,N
1458557575.6,286047003.1,N
1458557595.4,286047002.5,N
1458557615.2,286047000.3,N
1458557635.1,286046996.9,N
1458557636.0,286046996.9,N
1458557655.8,286046995.6,N
1458557675.6,286046995.9,N
1458557695.5,286046995.4,N
1458557715.3,286046996.3,N
1458557735.1,286046995.2,N
1458557755.9,286046995.5,N
1458557775.7,286046994.1,N
1458557795.5,286046994.8,N
1458557815.3,286046991.9,N
1458557835.2,286046996.8,N
1458557855.0,286046993.5,N
1458557855.9,286046993.5,N
1458557875.7,286046992.7,N
1458557895.6,286046993.0,N
1458557915.4,286046991.3,N
1458557935.2,286046993.2,N
1458557955.1,286046991.9,N
1458557956.0,286046991.9,N
1458557975.8,286046986.3,N
1458557995.6,286046985.6,N
